Le nostre stazioni meteo in Italia

Pubblicità
Il mio iltempo24.it
Decimomannu, Italia (16546): Temperatura & dewpoint: 22.03.2017 12:00:00 - 28.03.2017 12:00:00 (CEST)Decimomannu, Italia (16546): velocità del vento: 22.03.2017 12:00:00 - 28.03.2017 12:00:00 (CEST)Decimomannu, Italia (16546): direzione del vento: 22.03.2017 12:00:00 - 28.03.2017 12:00:00 (CEST)Decimomannu, Italia (16546): reduced air pressure: 22.03.2017 12:00:00 - 28.03.2017 12:00:00 (CEST)Decimomannu, Italia (16546): visibility: 22.03.2017 12:00:00 - 28.03.2017 12:00:00 (CEST)
Data & Tempo tt [°C] td [°C] ff [km/h] ff [kn] dd ppp [hPa] vv [km]
28.03.2017 12:00:00 - - - - - - -
28.03.2017 11:00:00 15,2 6,7 8 4 ONO 1022,9 15
28.03.2017 10:00:00 12,0 7,0 5 3 NNO - 10
28.03.2017 09:00:00 9,0 6,0 9 5 N - 10
28.03.2017 08:00:00 5,6 3,4 5 3 NO 1022,0 12
28.03.2017 07:00:00 5,0 3,0 4 2 NNO - 10
28.03.2017 06:00:00 6,0 3,0 2 1 ENE - 10
28.03.2017 05:00:00 6,6 4,2 2 1 NNE 1021,2 14
28.03.2017 04:00:00 8,0 6,0 0 0 N - 10
28.03.2017 03:00:00 8,0 6,0 5 3 N - 10
28.03.2017 02:00:00 7,0 5,2 4 2 N 1022,0 14
28.03.2017 01:00:00 8,0 7,0 5 3 NNO - 10
28.03.2017 00:00:00 10,0 8,0 0 0 N - 10
27.03.2017 23:00:00 11,4 9,1 0 0 N 1021,1 14
27.03.2017 22:00:00 12,0 9,0 5 3 SSE - 10
27.03.2017 21:00:00 13,0 10,0 8 4 S - 10
27.03.2017 20:00:00 13,2 9,5 16 9 S 1019,9 15
27.03.2017 19:00:00 15,0 10,0 18 10 SSE - 10
27.03.2017 18:00:00 16,0 11,0 22 12 SSE - 10
27.03.2017 17:00:00 16,0 9,4 21 11 SSE 1018,9 30
27.03.2017 16:00:00 17,0 10,0 18 10 SSE - 10
27.03.2017 15:00:00 18,0 10,0 18 10 S - 10
27.03.2017 14:00:00 20,0 7,7 9 5 S 1019,1 30
27.03.2017 13:00:00 20,0 8,0 8 4 SSE - 10
27.03.2017 12:00:00 19,0 9,0 5 3 SSE - 10
27.03.2017 11:00:00 16,2 9,4 4 2 SE 1020,1 30
27.03.2017 10:00:00 11,0 8,0 0 0 N - 10
27.03.2017 09:00:00 6,0 3,0 4 2 N - 10
27.03.2017 08:00:00 2,0 -0,1 0 0 N 1019,4 20
27.03.2017 07:00:00 2,0 0,0 5 3 NNO - 10
27.03.2017 06:00:00 3,0 1,0 8 4 NO - 10
27.03.2017 05:00:00 3,6 1,5 4 2 NNE 1019,1 15
27.03.2017 04:00:00 3,0 1,0 2 1 NNE - 10
27.03.2017 03:00:00 6,0 4,0 4 2 NO - 10
27.03.2017 02:00:00 6,0 4,2 4 2 N 1019,4 15
27.03.2017 01:00:00 7,0 5,0 0 0 N - 10
27.03.2017 00:00:00 9,0 7,0 5 3 N - 10
26.03.2017 23:00:00 9,0 6,8 5 3 NNE 1019,0 15
26.03.2017 22:00:00 9,0 7,0 4 2 NNE - 10
26.03.2017 21:00:00 11,0 6,0 5 3 N - 10
26.03.2017 20:00:00 12,6 4,1 2 1 NNE 1018,6 15
26.03.2017 19:00:00 17,0 6,0 8 4 NNO - 10
26.03.2017 18:00:00 18,0 5,0 5 3 SSE - 10
26.03.2017 17:00:00 19,4 4,0 9 5 S 1018,1 30
26.03.2017 16:00:00 20,0 3,0 2 1 S - 10
26.03.2017 15:00:00 19,0 2,0 5 3 SE - 10
26.03.2017 14:00:00 20,0 3,7 0 0 N 1020,3 25
26.03.2017 13:00:00 18,0 4,0 2 1 S - 10
26.03.2017 12:00:00 16,0 8,0 2 1 SE - 10
26.03.2017 11:00:00 13,6 8,7 2 1 NNO 1022,0 20
26.03.2017 10:00:00 9,0 6,0 4 2 NNE - 10
26.03.2017 09:00:00 5,0 2,0 2 1 N - 10
26.03.2017 08:00:00 3,8 1,5 5 3 NO 1021,1 18
26.03.2017 07:00:00 4,0 2,0 0 0 N - 10
26.03.2017 06:00:00 5,0 3,0 0 0 N - 10
26.03.2017 05:00:00 5,0 1,8 0 0 N 1021,8 12
26.03.2017 04:00:00 5,0 3,0 0 0 N - 10
26.03.2017 03:00:00 7,0 5,0 0 0 N - 10
26.03.2017 02:00:00 7,4 5,2 4 2 N 1021,8 12
26.03.2017 01:00:00 8,0 6,0 4 2 NNO - 10
26.03.2017 00:00:00 8,0 5,0 4 2 NNE - 10
25.03.2017 23:00:00 9,0 7,0 0 0 N 1021,5 12
25.03.2017 22:00:00 9,0 7,0 0 0 N - 10
25.03.2017 21:00:00 10,0 8,0 4 2 N - 10
25.03.2017 20:00:00 13,0 9,1 13 7 NO 1020,2 20
25.03.2017 19:00:00 15,0 9,0 13 7 NNO - 10
25.03.2017 18:00:00 15,0 9,0 8 4 NNO - 10
25.03.2017 17:00:00 15,8 9,0 15 8 NNO 1019,5 15
25.03.2017 16:00:00 15,0 10,0 11 6 NNO - 10
25.03.2017 15:00:00 14,0 11,0 9 5 N - 8
25.03.2017 14:00:00 13,8 11,1 9 5 NE 1020,2 8
25.03.2017 13:00:00 13,0 10,0 5 3 N - 7
25.03.2017 12:00:00 13,0 11,0 5 3 NO - 8
25.03.2017 11:00:00 12,8 10,4 5 3 NO 1019,3 7
25.03.2017 10:00:00 13,0 11,0 5 3 O - 7
25.03.2017 09:00:00 15,0 13,0 15 8 SE - 6
25.03.2017 08:00:00 15,0 13,0 18 10 ESE 1016,8 8
25.03.2017 07:00:00 15,0 13,0 18 10 ESE - 10
25.03.2017 06:00:00 15,0 13,0 31 17 SE - 10
25.03.2017 05:00:00 15,4 12,9 29 16 SE 1016,1 12
25.03.2017 04:00:00 15,0 11,0 28 15 SE - 10
25.03.2017 03:00:00 15,0 11,0 29 16 SE - 10
25.03.2017 02:00:00 15,0 11,6 35 19 SE 1016,3 10
25.03.2017 01:00:00 15,0 11,0 26 14 SE - 10
25.03.2017 00:00:00 15,0 10,0 26 14 ESE - 10
24.03.2017 23:00:00 15,8 10,5 22 12 ESE 1014,8 12
24.03.2017 22:00:00 15,0 10,0 22 12 ESE - 10
24.03.2017 21:00:00 15,0 12,0 18 10 ESE - 10
24.03.2017 20:00:00 15,4 12,5 18 10 SE 1015,1 10
24.03.2017 19:00:00 18,0 14,0 31 17 ESE - 10
24.03.2017 18:00:00 19,0 13,0 37 20 SE - 10
24.03.2017 17:00:00 19,0 13,2 34 18 SE 1015,6 12
24.03.2017 16:00:00 20,0 13,0 37 20 SSE - 10
24.03.2017 15:00:00 20,0 14,0 39 21 SSE - 10
24.03.2017 14:00:00 19,0 13,6 41 22 SSE 1016,9 12
24.03.2017 13:00:00 17,0 13,0 35 19 SSE - 10
24.03.2017 12:00:00 19,0 13,0 44 24 SSE - 10
24.03.2017 11:00:00 18,6 12,8 34 18 SE 1016,9 12
24.03.2017 10:00:00 18,0 13,0 29 16 SE - 10
24.03.2017 09:00:00 15,0 12,0 29 16 SE - 9
24.03.2017 08:00:00 13,8 11,1 21 11 SE 1015,1 9
24.03.2017 07:00:00 14,0 12,0 26 14 SE - 9
24.03.2017 06:00:00 14,0 12,0 31 17 SE - 9
24.03.2017 05:00:00 14,4 12,1 24 13 SE 1014,9 9
24.03.2017 04:00:00 15,0 12,0 18 10 SSE - 9
24.03.2017 03:00:00 15,0 13,0 21 11 SSE - 9
24.03.2017 02:00:00 15,4 12,7 18 10 SSE 1015,7 9
24.03.2017 01:00:00 15,0 13,0 21 11 SE - 10
24.03.2017 00:00:00 15,0 12,0 22 12 SE - 10
23.03.2017 23:00:00 15,0 12,3 21 11 SE 1015,3 10
23.03.2017 22:00:00 15,0 12,0 8 4 ESE - 10
23.03.2017 21:00:00 15,0 13,0 16 9 SSE - 10
23.03.2017 20:00:00 15,4 13,4 22 12 SSE 1014,3 10
23.03.2017 19:00:00 16,0 14,0 24 13 SE - 10
23.03.2017 18:00:00 18,0 15,0 22 12 SSE - 10
23.03.2017 17:00:00 19,2 14,7 21 11 SSE 1014,0 15
23.03.2017 16:00:00 21,0 15,0 22 12 SE - 10
23.03.2017 15:00:00 21,0 13,0 24 13 SE - 10
23.03.2017 14:00:00 20,6 14,5 22 12 SE 1015,1 12
23.03.2017 13:00:00 20,0 14,0 24 13 SE - 10
23.03.2017 12:00:00 19,0 14,0 22 12 ESE - 8
23.03.2017 11:00:00 18,2 14,5 18 10 SE 1015,6 7
23.03.2017 10:00:00 13,0 10,0 5 3 SSO - 6
23.03.2017 09:00:00 11,0 8,0 2 1 ESE - 4,0
23.03.2017 08:00:00 9,0 6,4 2 1 NNO 1014,7 7
23.03.2017 07:00:00 9,0 6,0 5 3 ENE - 7
23.03.2017 06:00:00 9,0 7,0 4 2 N - 10
23.03.2017 05:00:00 9,2 6,6 2 1 ONO 1014,0 10
23.03.2017 04:00:00 9,0 6,0 2 1 E - 10
23.03.2017 03:00:00 9,0 6,0 4 2 E - 10
23.03.2017 02:00:00 9,0 6,8 2 1 NNE 1015,2 12
23.03.2017 01:00:00 9,0 7,0 4 2 ONO - 10
23.03.2017 00:00:00 10,0 8,0 4 2 NNE - 10
22.03.2017 23:00:00 11,4 9,3 2 1 NO 1014,9 12
22.03.2017 22:00:00 12,0 10,0 8 4 ONO - 10
22.03.2017 21:00:00 14,0 11,0 8 4 NNO - 10
22.03.2017 20:00:00 15,4 10,8 8 4 ONO 1013,6 25
22.03.2017 19:00:00 18,0 11,0 13 7 O - 10
22.03.2017 18:00:00 20,0 10,0 11 6 O - 10
22.03.2017 17:00:00 21,0 11,9 5 3 N 1012,9 25
22.03.2017 16:00:00 20,0 12,0 2 1 ENE - 10
22.03.2017 15:00:00 19,0 12,0 2 1 NNE - 10
22.03.2017 14:00:00 19,0 11,6 4 2 ONO 1014,4 20
22.03.2017 13:00:00 18,0 11,0 8 4 NNO - 10
22.03.2017 12:00:00 - - - - - - -

tt = Temperatura
td = dewpoint
ff = velocità del vento
dd = direzione del vento
ppp = reduced air pressure
vv = visibility

Stazioni seguenti

WeatherPro
AMSI
MeteoEarth